Details From YLHI - Lord Howe Island
To YBBN - Brisbane Intl
Flight Number -
Tags Generated
Created
Modified
Stats Distance 398 nm / 738 km
Max Altitude 0 ft / 0 m
Waypoints 3
Social Downloads 0
Likes 0
Share VATSIM

Download

Looking for another format? Having issues loading an existing format? Contact us
Advertisement - Login to hide

Notes

Generated

Route

YLHI BBNSM YBBN

ID Type Via Altitude Latitude Longitude Leg Dist Tot Dist Heading (true) Name
O YLHI APT - 0 ft / 0 m -31.53674˚ 159.07171˚ - 0 nm - -
BBNSM FIX - 0 ft / 0 m -27.41128˚ 153.11347˚ 397 nm 397 nm 307° / 310° -
O YBBN APT - 0 ft / 0 m -27.40786˚ 153.10379˚ 0 nm 398 nm 292° / 292° -

Altitude Profile

Advertisement - Login to hide

Weather


0- 5 10 15 20 25 30 35+ Temperature / ° C

Clouds and Precipitation
Forecast for 2018-05-24 00:00 UTC. Updated 5 hours ago

Ground ~20,000 ft ~40,000 ft Winds

YLHI

Details ICAO YLHI (LDH)
Name Lord Howe Island
Region Australia
Timezone Unknown (UTC+0.0)
Stats Elevation 16 ft / 5 m (AMSL)
Location -31.538405° 159.075986°
Runways 1
Magnetic Variation 14.064° E

METAR

YLHI 240400Z 22009KT 9999 VCSH FEW026 BKN030 BKN060 20/15 Q1019

Decode

TAF

TAF AMD YLHI 240337Z 2403/2424 22013KT 9999 -SHRA SCT020 BKN040 FM241200 20012KT 9999 -SHRA BKN030 FM242000 19014KT 9999 -SHRA SCT030

Decode

Departure Runways

ID Width Length Bearing (true) Bearing (mag) Surface Threshold Offset Overrun Length
10 98 ft / 30 m 2,902 ft / 885 m 114.50° 100.44° Asphalt 0 ft / 0 m 194 ft / 59 m
28 98 ft / 30 m 2,902 ft / 885 m 294.50° 280.44° Asphalt 322 ft / 98 m 190 ft / 58 m

YBBN

Details ICAO YBBN (BNE)
Name Brisbane Intl
Region Australia
Timezone Australia/Brisbane (UTC+10.0)
Stats Elevation 12 ft / 4 m (AMSL)
Location -27.375714° 153.127710°
Runways 2
Magnetic Variation 10.987° E

METAR

YBBN 240400Z 12008KT 9999 FEW045 BKN280 22/12 Q1020 NOSIG

Decode

TAF

TAF YBBN 232331Z 2400/2506 15009KT 9999 FEW030 FM240300 08009KT 9999 FEW040 FM241000 19006KT 9999 SCT025 SCT050 FM250000 15012KT 9999 SCT030 FM250200 15014KT 9999 -SHRA BKN030

Decode

Destination Runways

ID Width Length Bearing (true) Bearing (mag) Surface Threshold Offset Overrun Length
01 148 ft / 45 m 11,805 ft / 3,598 m 26.93° 15.94° Asphalt 197 ft / 60 m 0 ft / 0 m
14 98 ft / 30 m 5,787 ft / 1,764 m 145.66° 134.67° Asphalt 197 ft / 60 m 0 ft / 0 m
19 148 ft / 45 m 11,805 ft / 3,598 m 206.92° 195.93° Asphalt 0 ft / 0 m 0 ft / 0 m
32 98 ft / 30 m 5,787 ft / 1,764 m 325.66° 314.67° Asphalt 197 ft / 60 m 0 ft / 0 m

Approach Navaids

Runway Type Ident Frequency Range Bearing (true) Bearing (mag) Slope Elevation
01 Localiser IBA 109.50 MHz 18 nm / 33 km 26.70° 15.71° - 28 ft / 9 m (AMSL)
01 Glidescope IBA 109.50 MHz 10 nm / 19 km 26.92° 15.93° 3.00° 13 ft / 4 m (AMSL)
19 Localiser IBS 110.10 MHz 18 nm / 33 km 206.97° 195.98° - 49 ft / 15 m (AMSL)
19 Glidescope IBS 110.10 MHz 10 nm / 19 km 206.92° 195.93° 3.00° 13 ft / 4 m (AMSL)

Popular Alternatives